GFSCGP_prec_cloud_003.txt.gz
Cloud_Cover
0 0 0 0 0 0 5 23 93 98 60 60 0 0 0 0 1 0 0 0 0 0 0 0 0 0 0 0 0 0 0 0 0 0 0 0 0 0 0 0 0 81 5 0
0 0 0 0 0 4 47 100 3 42 4 5 2 1 0 22 1 0 0 0 0 0 0 0 0 0 0 0 0 0 0 0 0 0 0 0 0 0 0 0 0 0 0 0
0 0 0 0 0 4 5 100 97 50 21 9 26 4 4 91 96 100 76 4 0 0 0 0 0 0 0 0 0 0 0 0 0 0 0 0 0 0 0 9 16 0 0 0
0 0 0 0 0 0 5 8 56 100 33 51 4 0 0 14 24 100 99 1 0 0 0 0 0 0 0 0 0 0 0 0 0 0 0 0 0 0 0 0 0 0 0 0
0 0 0 0 0 0 0 0 1 5 100 53 11 3 0 6 3 28 28 21 98 1 0 0 0 0 0 0 0 0 0 0 0 0 0 0 0 0 0 0 0 0 0 0
0 0 0 0 0 0 0 0 0 0 2 2 3 0 0 0 38 42 11 4 21 0 0 0 0 0 0 0 0 0 0 0 0 0 0 0 0 0 0 0 0 0 0 0
0 0 0 0 0 0 0 0 0 2 0 0 0 0 0 0 6 6 4 0 0 0 0 0 0 0 0 0 0 0 0 0 0 0 0 0 0 0 0 0 0 0 0 0
0 0 0 0 0 0 0 0 0 1 1 3 71 41 0 4 5 2 0 0 0 0 0 0 0 0 0 0 0 0 0 0 0 0 0 0 0 0 0 0 0 0 0 0
0 0 0 0 0 0 0 0 0 2 100 86 85 3 7 2 3 0 0 0 0 0 0 2 0 0 0 0 0 0 0 0 4 0 0 0 0 0 0 0 0 0 0 0
0 0 0 0 0 0 1 1 0 3 25 63 81 91 90 7 5 5 5 0 0 0 0 0 0 0 0 0 0 0 0 4 5 0 0 0 0 0 1 0 0 0 0 0
0 0 0 2 1 0 0 0 0 0 0 43 13 15 100 99 99 51 5 3 0 0 0 0 0 0 0 0 0 0 0 0 0 0 0 0 0 2 34 0 2 0 0 0
0 0 0 29 3 2 0 0 0 5 2 0 5 5 5 5 48 25 0 0 0 0 0 0 0 0 0 0 0 0 0 0 2 0 0 0 0 5 5 5 5 0 0 0
0 0 9 100 95 20 55 0 3 2 0 4 4 44 73 100 5 9 1 4 58 4 5 0 0 0 0 0 0 0 0 0 0 0 0 2 5 37 35 4 5 0 0 0
0 0 5 1 77 14 90 5 5 0 0 0 4 22 6 100 8 29 42 5 6 2 5 4 0 0 0 0 0 0 0 0 0 0 4 5 5 8 32 5 2 0 0 0
0 0 5 5 96 100 98 96 35 26 3 0 1 9 2 20 14 71 88 92 55 41 52 0 0 0 0 0 0 0 0 0 0 0 3 5 2 13 8 0 0 0 0 0
0 0 4 6 96 100 86 97 83 100 37 16 12 5 0 0 100 41 5 47 9 19 5 2 0 0 0 0 0 0 0 2 6 5 5 15 5 50 5 0 3 0 0 0
100 27 5 27 8 91 31 81 100 100 84 1 86 76 0 4 4 0 0 0 0 3 0 0 0 0 0 0 0 0 7 100 62 4 5 93 68 13 5 5 5 5 0 2
100 100 38 24 90 0 0 0 2 41 32 92 99 52 71 10 18 4 4 3 12 1 1 0 0 0 0 0 0 0 9 5 5 6 5 9 66 5 5 4 4 2 5 5
100 100 96 5 11 0 0 0 0 0 2 5 99 96 0 20 100 71 5 2 0 16 67 47 0 0 0 1 2 0 5 5 10 5 8 81 7 5 5 4 82 9 5 6
88 83 100 55 0 0 0 0 4 4 79 96 97 100 95 14 82 5 5 7 30 5 24 86 0 0 0 5 5 5 5 5 5 5 55 14 21 5 55 100 100 34 53 75
59 93 69 36 25 3 98 100 53 27 45 17 72 100 57 56 94 19 12 100 29 6 42 6 10 6 4 6 10 34 34 5 17 6 91 13 46 100 100 100 36 100 52 17
100 100 96 42 58 78 69 88 100 100 41 100 100 82 85 100 99 92 35 87 92 100 84 95 100 18 5 6 18 45 5 14 20 83 45 100 100 100 91 76 100 78 73 15
69 100 100 98 100 75 100 100 39 36 99 83 42 8 3 59 95 100 100 100 86 57 1 0 6 23 5 10 5 93 93 42 100 100 100 100 100 100 100 100 100 100 75 58
9 90 100 100 100 11 18 100 100 100 100 100 99 98 100 100 100 100 5 0 86 49 0 0 0 1 29 9 5 8 77 91 100 100 100 100 100 100 100 100 70 39 10 2
35 71 100 100 83 4 4 4 100 100 89 100 100 100 100 100 98 89 54 3 1 1 5 3 2 5 21 14 5 24 84 60 100 100 100 100 100 100 100 100 64 2 34 18
100 62 10 100 97 19 72 69 97 100 100 100 100 100 100 100 100 47 55 76 2 5 5 7 44 20 18 54 22 93 100 64 63 100 100 100 100 99 39 16 44 97 82 100

GFSCGP_prec_cloud_006.txt.gz
Cloud_Cover
0 0 0 0 0 0 0 2 3 24 5 5 3 1 0 0 0 0 0 0 0 0 0 0 0 0 0 0 0 0 0 0 1 0 0 0 0 0 0 0 0 1 1 0
0 0 0 0 0 0 5 5 9 71 87 4 0 5 0 0 0 3 1 0 0 0 0 0 0 0 0 0 0 0 0 0 0 0 0 0 0 0 0 0 0 0 0 0
0 0 0 0 0 0 6 64 43 3 95 78 4 3 8 0 2 45 72 2 0 0 0 0 0 0 0 0 0 0 0 0 0 0 0 0 0 0 0 0 0 0 0 0
0 0 0 0 0 0 32 5 12 6 88 26 2 5 5 0 0 88 49 5 4 4 0 0 0 0 0 0 0 0 0 0 0 0 1 0 0 0 0 0 0 0 0 0
0 0 0 0 0 0 0 5 27 88 96 5 2 15 0 0 0 0 3 0 6 98 1 0 0 0 0 0 0 0 0 0 0 0 0 0 0 0 0 0 0 0 0 0
0 0 0 0 0 0 0 3 24 82 8 3 0 5 5 0 0 0 0 3 6 5 0 0 0 0 0 0 0 0 0 0 0 0 0 0 0 0 0 0 0 0 0 0
0 0 0 0 0 0 0 0 0 1 3 0 4 3 0 0 0 5 3 0 0 0 0 0 0 0 0 0 0 0 0 0 0 0 0 0 0 0 0 0 0 0 0 0
0 0 0 0 0 0 0 0 0 0 0 0 0 0 0 24 1 5 0 0 0 0 0 0 0 3 22 0 0 0 0 0 0 0 0 0 0 0 0 0 0 0 0 0
0 0 0 0 0 0 0 0 0 0 0 0 22 5 0 37 5 3 0 0 0 0 0 0 0 0 1 0 0 0 0 0 0 0 0 0 0 0 0 0 0 0 0 0
0 0 0 0 0 0 0 0 0 0 0 0 0 5 5 5 61 16 0 0 0 0 0 0 0 0 0 0 0 0 0 0 0 0 0 0 4 2 0 0 0 0 0 0
0 0 0 0 0 0 0 0 0 0 0 0 0 1 4 22 13 5 3 2 5 0 0 0 0 0 0 0 0 0 0 0 0 0 0 60 84 0 0 0 0 1 0 5
0 0 0 0 0 0 0 0 0 0 0 0 0 0 0 5 5 3 9 6 0 0 0 0 0 0 0 0 0 0 0 0 0 0 4 6 5 5 0 0 3 0 5 4
0 0 0 0 0 0 0 1 3 0 0 0 0 0 0 0 0 4 4 2 0 0 0 2 0 0 0 0 0 0 0 0 0 1 5 5 5 8 28 5 6 13 14 8
0 0 0 0 0 0 2 7 55 3 0 0 0 0 0 0 0 0 0 0 0 0 2 0 0 0 0 0 0 0 0 0 0 5 5 31 100 100 100 96 49 90 100 84
2 0 0 0 1 17 12 2 5 5 0 0 0 0 0 0 0 0 1 5 5 5 3 0 0 0 0 0 0 0 0 0 0 6 91 100 100 100 100 100 100 100 100 13
3 5 0 0 41 100 24 69 99 87 100 100 14 5 0 0 6 5 5 12 1 3 5 0 3 3 0 0 0 0 0 25 51 4 3 40 100 100 100 100 100 100 100 100
0 5 5 5 97 95 100 6 96 100 53 42 94 85 78 32 73 2 4 0 0 5 1 0 0 0 0 0 0 0 0 53 27 17 67 100 88 100 100 100 100 100 100 100
0 11 93 100 89 99 100 91 100 6 47 41 16 8 55 13 50 26 0 0 1 3 5 0 0 1 0 0 0 0 0 0 46 48 81 20 50 91 91 99 100 100 98 87
97 19 98 88 100 44 97 100 80 100 100 98 5 2 0 0 3 1 0 5 1 5 30 0 0 5 0 0 0 0 0 0 1 4 20 37 99 71 88 100 100 100 100 100
100 100 100 100 14 5 86 95 98 100 82 49 98 0 0 14 3 0 1 0 0 3 77 100 100 62 4 26 16 0 0 0 0 1 5 46 100 100 100 100 100 100 100 100
100 97 66 80 100 85 2 1 0 1 29 0 0 3 5 34 59 40 41 9 79 69 71 46 89 100 15 5 2 0 0 0 0 0 59 100 100 100 100 100 100 100 100 99
93 100 100 49 79 96 2 48 0 0 0 4 0 9 95 45 60 72 50 31 69 82 92 98 100 88 89 98 60 3 11 21 0 5 20 84 96 100 100 100 100 100 100 100
100 100 100 29 77 11 5 26 3 15 78 68 96 100 100 100 100 100 99 100 100 100 96 71 6 11 29 100 100 100 93 1 2 15 84 100 98 100 100 100 100 100 100 100
8 71 26 97 100 100 100 100 36 18 100 100 100 100 100 100 100 100 100 100 100 96 73 61 7 3 40 26 20 1 4 97 100 100 100 100 84 100 100 100 100 100 100 100
86 100 100 100 100 100 100 100 76 99 100 100 100 100 100 100 100 100 100 100 100 100 100 100 100 59 33 0 28 98 100 100 100 100 100 98 68 98 100 100 100 100 100 100
89 100 94 100 100 100 100 100 100 100 100 100 100 100 100 91 93 100 100 100 100 94 99 83 28 79 88 94 100 77 85 100 100 100 100 100 100 100 99 100 96 100 93 68

GFSCGP_prec_cloud_009.txt.gz
Cloud_Cover
0 0 0 0 0 0 0 5 2 5 3 4 4 1 0 0 0 0 0 0 0 0 0 0 0 0 0 0 0 0 0 0 4 10 14 13 10 0 0 0 0 0 0 0
0 0 0 0 0 0 0 5 14 96 5 76 98 11 0 4 0 2 3 0 0 0 0 0 0 0 0 0 0 0 0 0 0 0 0 0 0 0 0 0 0 0 0 0
0 0 0 0 0 0 4 0 9 4 32 96 98 69 1 13 3 4 5 4 0 0 0 0 0 0 0 0 0 0 0 0 0 0 0 2 2 0 0 3 2 0 0 0
0 0 0 0 0 0 0 0 5 96 8 1 0 4 5 89 5 1 90 5 0 0 5 2 0 0 0 0 0 0 0 0 0 0 3 0 14 4 2 0 0 0 0 0
0 0 0 0 0 0 0 6 61 5 0 0 0 2 0 5 0 0 63 24 4 2 4 0 0 0 0 0 0 0 0 0 0 0 1 12 0 0 0 0 0 0 0 0
0 0 0 0 0 0 0 94 61 5 5 0 0 0 0 0 0 0 0 0 5 5 4 0 0 0 0 0 0 0 0 0 0 0 0 0 0 0 1 0 0 0 0 0
0 0 0 0 0 0 0 86 10 1 0 0 0 0 0 0 0 0 0 0 0 0 0 0 0 0 0 0 0 0 0 0 0 0 0 0 0 0 0 0 0 0 0 0
0 0 0 0 0 0 0 26 2 0 0 0 0 0 0 0 4 0 0 0 0 0 0 0 0 0 0 0 0 0 0 0 0 0 0 0 0 0 0 0 0 0 0 3
0 0 0 0 0 0 0 0 0 0 0 0 0 0 0 0 54 2 0 0 0 0 0 0 0 0 15 70 4 0 0 0 0 0 0 0 0 0 0 1 5 5 5 10
0 0 0 0 0 0 0 0 0 0 0 0 0 0 0 0 2 3 0 0 0 0 0 0 0 0 0 0 0 0 0 11 52 0 5 29 11 3 2 7 5 3 56 98
0 0 0 0 0 0 0 0 0 0 0 0 0 0 0 0 0 0 5 0 0 0 0 0 0 0 0 0 0 0 0 18 72 81 0 18 0 3 5 40 6 99 59 21
0 0 0 0 0 0 0 0 0 0 0 0 0 0 0 0 0 3 38 6 1 0 0 0 0 0 0 0 0 0 0 0 11 31 0 0 10 5 5 91 100 100 100 100
0 0 0 0 0 0 0 0 0 0 0 0 0 0 0 0 0 0 0 0 0 0 0 0 0 0 0 0 0 0 0 0 0 0 0 0 5 1 7 32 65 100 97 52
0 0 0 0 0 0 0 0 0 0 0 0 0 0 0 0 0 0 0 0 0 0 0 0 0 0 5 2 0 0 0 0 0 0 0 0 0 14 89 100 100 96 75 83
0 0 0 0 0 0 0 0 0 0 0 0 0 0 0 0 0 0 0 0 0 0 0 0 0 0 0 0 0 1 0 0 1 1 0 0 0 100 100 100 100 96 76 100
0 0 0 0 0 0 0 0 0 2 86 38 0 0 0 0 0 0 0 0 0 0 0 0 0 0 0 0 0 0 0 0 0 1 31 5 99 100 100 100 100 100 100 100
2 0 0 0 0 0 97 5 5 4 7 93 10 0 0 0 0 0 0 2 0 0 0 0 0 2 1 0 0 0 0 0 1 68 3 96 100 100 100 100 100 100 98 100
0 0 1 0 0 96 68 100 99 44 54 48 61 0 0 1 7 4 1 5 1 0 0 0 0 0 2 0 0 0 0 0 0 0 0 31 100 100 100 99 71 100 100 100
0 0 5 0 0 57 90 100 100 63 12 98 1 4 94 11 95 38 5 5 71 9 3 0 4 3 2 5 5 0 0 0 0 0 1 31 35 98 100 100 78 100 90 100
95 0 72 83 17 100 65 100 62 22 47 99 1 4 74 100 52 52 14 38 38 96 100 55 5 5 12 11 8 6 5 0 0 0 0 9 89 100 100 34 90 99 93 100
100 95 88 100 100 96 99 100 100 87 3 0 26 100 100 98 99 58 46 13 19 5 5 5 5 88 100 87 79 11 4 0 0 0 3 8 37 99 94 100 89 100 100 100
100 59 74 96 67 99 5 79 100 85 100 12 47 4 88 1 0 1 43 81 77 99 55 28 69 97 97 100 93 4 5 10 0 0 4 39 100 100 100 100 100 100 99 100
100 70 99 100 98 7 84 5 36 99 100 23 2 0 0 2 3 4 4 4 100 100 94 88 100 100 100 100 82 7 88 1 0 6 66 100 100 100 100 100 100 100 97 100
100 100 99 100 80 99 6 4 42 99 96 96 71 66 34 14 16 6 93 100 34 69 100 100 100 74 99 86 39 34 28 100 100 100 100 100 100 100 100 100 100 99 100 100
100 100 86 100 100 100 39 5 67 100 100 100 100 85 65 17 20 52 100 100 100 100 80 100 88 99 99 60 70 47 100 100 100 100 100 100 100 100 100 100 85 88 98 72
100 81 100 100 100 89 100 98 74 77 99 96 100 99 100 100 100 98 100 100 78 100 87 55 76 58 55 25 22 98 46 100 100 100 89 100 100 100 100 100 100 100 100 93

GFSCGP_prec_cloud_012.txt.gz
Cloud_Cover
0 0 0 0 0 0 0 0 0 5 5 50 6 5 4 0 0 0 0 0 0 0 0 0 0 0 0 0 0 0 0 0 5 13 29 28 26 5 4 0 0 0 0 0
0 0 0 0 0 0 0 0 0 5 5 5 77 97 5 5 0 2 4 2 1 0 0 0 0 0 0 0 0 0 0 0 0 5 8 0 2 1 0 0 0 0 0 0
0 0 0 0 0 0 0 0 0 0 5 5 45 7 5 7 5 0 5 5 4 0 0 2 0 0 0 0 0 0 0 0 0 0 16 25 14 9 11 14 6 0 0 0
0 0 0 0 0 0 0 0 0 3 5 5 13 0 28 59 5 2 1 5 3 0 0 0 0 0 0 0 0 0 0 0 0 0 2 2 16 15 1 0 3 0 0 0
0 0 0 0 0 0 0 0 0 4 38 54 15 4 0 74 4 0 0 1 5 3 0 2 0 0 0 0 0 0 0 0 0 0 0 0 8 0 0 0 0 0 0 0
0 0 0 0 0 0 0 0 14 32 79 5 0 0 0 0 0 0 0 0 4 5 0 0 0 0 0 0 0 0 0 0 0 0 0 0 0 0 0 0 0 0 0 0
0 0 0 0 0 0 0 0 16 1 51 5 0 0 0 0 0 0 0 3 2 0 0 0 0 0 0 0 0 0 0 0 0 0 0 0 0 0 0 0 0 0 0 0
0 0 0 0 0 0 0 0 0 5 5 5 5 0 0 0 0 0 4 0 0 0 0 0 0 0 0 0 0 0 0 0 0 0 0 1 0 0 0 0 0 0 1 6
0 0 0 0 0 0 0 0 0 50 9 4 2 0 0 0 0 0 0 1 0 4 2 0 0 0 0 0 0 0 0 0 0 1 0 0 0 0 5 67 2 0 0 4
0 0 0 0 0 0 0 0 0 39 5 0 0 0 0 0 0 0 0 0 0 1 0 0 0 0 0 0 0 0 0 0 3 5 20 98 0 46 95 88 39 0 2 1
0 0 0 0 0 0 0 0 0 1 5 0 0 0 0 0 0 0 1 1 0 0 0 0 0 0 0 0 0 0 0 0 0 2 70 7 100 6 99 9 5 0 13 97
0 0 0 0 0 0 0 0 0 0 0 0 0 0 0 0 0 0 0 4 0 0 0 0 0 0 0 0 0 0 0 0 0 0 95 98 75 95 2 93 12 100 100 41
0 0 0 0 0 0 0 0 0 0 0 0 0 0 0 0 0 0 0 0 0 0 0 0 0 0 0 2 1 0 0 0 0 0 1 73 91 99 52 3 100 100 100 100
0 0 0 0 0 0 0 0 0 0 0 0 0 0 0 0 0 0 0 0 0 0 0 0 0 0 0 1 4 0 0 0 0 0 0 1 6 12 90 94 100 100 100 100
0 0 0 0 0 0 0 0 0 0 0 0 0 0 0 0 0 0 0 0 0 0 0 0 0 0 0 0 0 0 0 0 0 0 0 0 45 96 100 100 100 100 100 100
5 0 0 0 0 0 0 0 0 0 0 0 0 0 0 0 0 0 0 0 0 0 0 0 0 0 0 0 0 0 0 0 0 0 0 0 1 57 90 100 100 100 100 100
2 0 0 0 0 0 0 0 0 0 0 0 0 0 0 0 0 0 0 0 0 0 0 0 0 0 0 0 0 0 0 0 1 0 0 0 47 9 94 93 100 100 100 100
35 21 2 0 0 0 0 0 0 0 0 0 0 0 0 7 3 0 0 0 0 0 0 4 3 0 0 0 0 4 1 5 1 7 0 0 0 0 33 87 100 100 100 100
95 83 34 0 0 0 0 0 0 0 1 4 5 3 2 4 1 0 0 0 3 0 5 92 100 6 0 0 2 4 5 5 12 38 27 8 0 0 51 72 100 100 100 100
98 90 100 56 15 1 0 0 0 51 96 55 10 4 0 4 0 0 0 5 72 5 7 9 56 5 5 5 5 5 5 7 36 44 40 14 0 71 96 65 100 100 100 100
100 100 93 100 94 53 0 0 0 100 30 5 38 62 5 0 1 2 56 99 100 73 91 63 3 0 5 44 64 96 83 64 33 84 14 44 42 95 100 100 100 100 100 100
100 100 100 100 97 90 0 0 59 100 1 64 100 60 38 52 95 46 95 100 56 100 5 5 3 5 94 98 100 65 97 87 39 96 48 60 100 100 100 100 100 100 100 100
100 100 100 19 98 100 8 5 97 100 86 100 93 92 88 67 40 9 49 15 7 1 5 1 3 4 26 84 72 34 100 92 52 4 36 77 100 100 95 75 100 100 100 100
100 100 100 100 100 100 18 5 98 99 4 16 93 83 62 11 20 89 94 58 91 100 98 95 92 92 100 75 84 99 81 18 37 10 7 99 100 100 100 100 100 100 97 100
100 100 100 100 100 100 100 100 100 56 25 5 4 5 5 28 14 86 43 74 100 98 80 72 72 100 100 100 100 100 30 83 23 28 17 100 100 100 100 98 100 100 100 100
100 100 100 100 99 100 98 93 100 100 100 100 100 99 100 100 100 100 100 100 100 78 8 72 90 87 100 100 100 100 100 91 93 3 25 36 28 100 100 100 100 100 100 100